Regional Weather Roundup
Issued by NWS Raleigh/Durham, NC

Home | Current Version | Previous Version | Text Only | Print | Product List | Glossary On
Versions: 1 2 3 4 5 6 7 8 9 10 11 12 13 14 15 16 17 18 19 20 21 22 23 24 25 26 27
000
ASUS42 KRAH 251210
RWRRAH
NORTH CAROLINA WEATHER ROUNDUP
NATIONAL WEATHER SERVICE RALEIGH NC
800 AM EDT THU AUG 25 2016

NOTE: "FAIR" INDICATES FEW OR NO CLOUDS BELOW 12,000 FEET WITH NO
SIGNIFICANT WEATHER AND/OR OBSTRUCTIONS TO VISIBILITY.

NCZ001-053-055-056-065-067-251300-
WESTERN NORTH CAROLINA

CITY           SKY/WX    TMP DP  RH WIND       PRES   REMARKS
ASHEVILLE      CLOUDY    68  65  90 NW7       30.28S FOG
JEFFERSON      SUNNY     68  64  88 W10       30.29F
MORGANTON      FOG       67  67 100 CALM      30.26S VSB<1/4
HICKORY        FOG       68  68 100 CALM      30.20F VSB<1/4
RUTHERFORDTON    N/A     68  68 100 CALM      30.22S
MOUNT AIRY     SUNNY     71  68  92 CALM      30.22F
BOONE          MOSUNNY   64  64  99 W3        30.31F
$$

NCZ021-022-025-041-071-084-088-251300-
CENTRAL NORTH CAROLINA

CITY           SKY/WX    TMP DP  RH WIND       PRES   REMARKS
CHARLOTTE      MOSUNNY   73  63  70 S3        30.20S
GREENSBORO     PTSUNNY   72  64  76 SW7       30.20S
WINSTON-SALEM  SUNNY     72  62  71 CALM      30.21S
RALEIGH-DURHAM PTSUNNY   70  66  87 CALM      30.20R
FORT BRAGG     SUNNY     69  65  86 CALM      30.18R
FAYETTEVILLE   SUNNY     71  65  81 CALM      30.18R
BURLINGTON     SUNNY     70  66  87 CALM      30.19F
LAURINBURG     MOSUNNY   69  64  84 CALM      30.20R
$$

NCZ011-015-027-028-043-044-047-080-103-251300-
NORTHEASTERN NORTH CAROLINA

CITY           SKY/WX    TMP DP  RH WIND       PRES   REMARKS
ROCKY MT-WILSO SUNNY     67  67 100 CALM      30.19R
GREENVILLE     SUNNY     70  70 100 CALM      30.19S FOG
ELIZABETH CITY SUNNY     72  71  97 CALM      30.18S
MANTEO         SUNNY     76  72  87 CALM      30.18R
CAPE HATTERAS  NOT AVBL
$$

NCZ078-087-090-091-093-098-101-251300-
SOUTHEASTERN NORTH CAROLINA

CITY           SKY/WX    TMP DP  RH WIND       PRES   REMARKS
LUMBERTON      MOSUNNY   69  65  86 NW3       30.18R
GOLDSBORO      SUNNY     70  70 100 CALM      30.17R
KINSTON        SUNNY     70  68  94 CALM      30.19R
KENANSVILLE    NOT AVBL
NEW BERN       SUNNY     75  72  90 CALM      30.19R
CHERRY POINT   MOSUNNY   77  70  79 N3        30.17S
BEAUFORT       SUNNY     75  68  78 NE6       30.16S
JACKSONVILLE   MOSUNNY   74  69  85 N5        30.17R
WILMINGTON     MOSUNNY   73  69  87 N5        30.16R
$$





USA.gov is the U.S. government's official web portal to all federal, state and local government web resources and services.